TimeEST,TemperatureF,Dew PointF,Humidity,Sea Level PressureIn,VisibilityMPH,Wind Direction,Wind SpeedMPH,Gust SpeedMPH,PrecipitationIn,Events,Conditions,WindDirDegrees,DateUTC
12:15 AM,41.0,26.6,57,30.29,10.0,NW,3.5,-,N/A,,Clear,320,2013-03-09 05:15:00
12:35 AM,40.6,26.6,57,30.29,10.0,NW,3.5,-,N/A,,Clear,320,2013-03-09 05:35:00
12:55 AM,39.6,26.6,60,30.30,10.0,Calm,Calm,-,N/A,,Clear,0,2013-03-09 05:55:00
1:15 AM,38.8,26.8,62,30.30,10.0,Calm,Calm,-,N/A,,Clear,0,2013-03-09 06:15:00
1:35 AM,38.3,26.4,62,30.30,10.0,NW,4.6,-,N/A,,Clear,320,2013-03-09 06:35:00
1:55 AM,36.7,27.3,69,30.29,10.0,NW,3.5,-,N/A,,Clear,320,2013-03-09 06:55:00
2:15 AM,36.7,27.0,68,30.28,10.0,Calm,Calm,-,N/A,,Clear,0,2013-03-09 07:15:00
2:35 AM,35.8,27.1,71,30.28,10.0,NNW,3.5,-,N/A,,Clear,330,2013-03-09 07:35:00
2:55 AM,36.9,26.6,66,30.27,10.0,NNW,4.6,-,N/A,,Clear,340,2013-03-09 07:55:00
3:15 AM,36.7,26.6,67,30.26,10.0,North,3.5,-,N/A,,Clear,350,2013-03-09 08:15:00
3:35 AM,36.5,26.2,66,30.26,10.0,Calm,Calm,-,N/A,,Clear,0,2013-03-09 08:35:00
3:55 AM,35.1,26.4,71,30.27,10.0,NW,3.5,-,N/A,,Clear,310,2013-03-09 08:55:00
4:15 AM,34.7,26.4,72,30.28,10.0,Calm,Calm,-,N/A,,Clear,0,2013-03-09 09:15:00
4:35 AM,34.0,27.0,75,30.28,10.0,NW,3.5,-,N/A,,Clear,320,2013-03-09 09:35:00
4:55 AM,33.3,26.6,77,-9999,10.0,Calm,Calm,-,N/A,,Clear,0,2013-03-09 09:55:00
5:15 AM,33.8,26.4,74,30.29,10.0,Calm,Calm,-,N/A,,Clear,0,2013-03-09 10:15:00
5:35 AM,32.2,26.4,79,30.29,10.0,Calm,Calm,-,N/A,,Clear,0,2013-03-09 10:35:00
5:55 AM,32.7,26.1,76,30.29,10.0,Calm,Calm,-,N/A,,Clear,0,2013-03-09 10:55:00
6:15 AM,32.0,26.4,80,30.29,10.0,Calm,Calm,-,N/A,,Clear,0,2013-03-09 11:15:00
6:35 AM,32.0,26.1,79,30.29,10.0,Calm,Calm,-,N/A,,Clear,0,2013-03-09 11:35:00
6:55 AM,31.5,26.2,81,30.30,10.0,Calm,Calm,-,N/A,,Clear,0,2013-03-09 11:55:00
7:15 AM,32.7,27.3,81,30.31,10.0,Calm,Calm,-,N/A,,Clear,0,2013-03-09 12:15:00
7:35 AM,35.8,27.9,73,30.31,10.0,Calm,Calm,-,0.01,,Clear,0,2013-03-09 12:35:00
7:55 AM,37.9,28.4,69,30.32,10.0,NW,3.5,-,0.08,,Clear,320,2013-03-09 12:55:00
8:15 AM,41.5,29.3,62,30.32,10.0,North,3.5,-,0.04,,Clear,350,2013-03-09 13:15:00
8:35 AM,44.2,27.9,53,30.33,10.0,North,5.8,-,0.08,,Clear,10,2013-03-09 13:35:00
8:55 AM,45.9,27.0,48,30.34,10.0,North,6.9,-,0.10,,Clear,360,2013-03-09 13:55:00
9:15 AM,47.5,25.5,42,30.33,10.0,North,8.1,-,0.02,,Clear,10,2013-03-09 14:15:00
9:35 AM,49.1,26.1,41,30.33,10.0,North,6.9,-,0.03,,Clear,360,2013-03-09 14:35:00
9:55 AM,50.4,25.9,39,30.33,10.0,North,6.9,-,0.04,,Clear,10,2013-03-09 14:55:00
10:15 AM,51.4,25.2,36,30.33,10.0,North,3.5,-,N/A,,Clear,360,2013-03-09 15:15:00
10:35 AM,52.0,24.6,35,30.33,10.0,North,8.1,-,N/A,,Clear,350,2013-03-09 15:35:00
10:55 AM,53.6,24.6,33,30.33,10.0,NNW,3.5,-,N/A,,Clear,340,2013-03-09 15:55:00
11:15 AM,54.9,25.5,32,30.32,10.0,NNE,4.6,-,N/A,,Clear,20,2013-03-09 16:15:00
11:35 AM,56.1,25.3,31,30.32,10.0,North,5.8,-,N/A,,Clear,10,2013-03-09 16:35:00
11:55 AM,56.8,24.8,29,30.32,10.0,North,8.1,-,N/A,,Clear,350,2013-03-09 16:55:00
12:15 PM,58.3,25.2,28,30.31,10.0,NE,4.6,-,N/A,,Clear,40,2013-03-09 17:15:00
12:35 PM,59.0,25.2,27,30.30,10.0,North,5.8,-,N/A,,Clear,10,2013-03-09 17:35:00
12:55 PM,60.3,24.8,26,30.30,10.0,North,5.8,-,N/A,,Clear,360,2013-03-09 17:55:00
1:15 PM,60.6,24.3,25,30.28,10.0,North,8.1,-,N/A,,Clear,360,2013-03-09 18:15:00
1:35 PM,61.3,24.8,25,30.28,10.0,North,6.9,-,N/A,,Clear,10,2013-03-09 18:35:00
1:55 PM,63.1,24.8,23,30.27,10.0,North,4.6,-,N/A,,Clear,10,2013-03-09 18:55:00
2:15 PM,63.5,25.0,23,30.27,10.0,North,9.2,-,N/A,,Clear,350,2013-03-09 19:15:00
2:35 PM,62.8,25.5,24,30.26,10.0,NNW,6.9,-,N/A,,Clear,340,2013-03-09 19:35:00
2:55 PM,63.0,24.8,23,30.26,10.0,NNW,8.1,-,N/A,,Clear,340,2013-03-09 19:55:00
3:15 PM,63.5,24.8,23,30.25,10.0,Calm,Calm,-,N/A,,Clear,0,2013-03-09 20:15:00
3:35 PM,64.6,25.2,22,30.25,10.0,Calm,Calm,-,N/A,,Clear,0,2013-03-09 20:35:00
3:55 PM,65.8,25.2,21,30.25,10.0,NNE,3.5,-,N/A,,Clear,30,2013-03-09 20:55:00
4:15 PM,63.9,23.7,22,30.24,10.0,NNW,4.6,-,N/A,,Clear,330,2013-03-09 21:15:00
4:35 PM,64.6,24.6,22,30.24,10.0,NE,6.9,-,N/A,,Clear,50,2013-03-09 21:35:00
4:55 PM,63.7,23.9,22,30.24,10.0,Calm,Calm,-,N/A,,Clear,0,2013-03-09 21:55:00
5:15 PM,63.5,24.8,23,30.25,10.0,North,3.5,-,N/A,,Clear,10,2013-03-09 22:15:00
5:35 PM,62.4,24.8,24,30.25,10.0,NNE,3.5,-,N/A,,Clear,30,2013-03-09 22:35:00
5:55 PM,61.5,25.3,25,30.25,10.0,NE,3.5,-,N/A,,Clear,40,2013-03-09 22:55:00
6:15 PM,59.7,25.5,27,30.26,10.0,Calm,Calm,-,N/A,,Clear,0,2013-03-09 23:15:00
6:35 PM,57.0,26.2,31,30.27,10.0,Calm,Calm,-,N/A,,Clear,0,2013-03-09 23:35:00
6:55 PM,56.3,26.6,32,30.27,10.0,Calm,Calm,-,N/A,,Clear,0,2013-03-09 23:55:00
7:15 PM,53.6,28.6,38,30.27,10.0,Calm,Calm,-,N/A,,Clear,0,2013-03-10 00:15:00
7:35 PM,51.6,30.0,44,30.28,10.0,Calm,Calm,-,N/A,,Clear,0,2013-03-10 00:35:00
7:55 PM,49.8,30.9,48,30.29,10.0,Calm,Calm,-,N/A,,Clear,0,2013-03-10 00:55:00
8:15 PM,48.2,32.0,54,30.28,10.0,Calm,Calm,-,N/A,,Clear,0,2013-03-10 01:15:00
8:35 PM,48.2,30.0,49,30.28,10.0,Calm,Calm,-,N/A,,Clear,0,2013-03-10 01:35:00
8:55 PM,44.8,32.0,61,30.28,10.0,Calm,Calm,-,N/A,,Clear,0,2013-03-10 01:55:00
9:15 PM,43.5,32.0,64,30.28,10.0,Calm,Calm,-,N/A,,Clear,0,2013-03-10 02:15:00
9:35 PM,44.6,32.2,62,30.28,10.0,Calm,Calm,-,N/A,,Clear,0,2013-03-10 02:35:00
9:55 PM,41.9,32.0,68,30.29,10.0,Calm,Calm,-,N/A,,Clear,0,2013-03-10 02:55:00
10:15 PM,40.8,32.0,71,30.29,10.0,Calm,Calm,-,N/A,,Clear,0,2013-03-10 03:15:00
10:35 PM,39.2,32.0,75,30.29,10.0,Calm,Calm,-,N/A,,Clear,0,2013-03-10 03:35:00
10:55 PM,39.6,32.0,74,30.29,10.0,NW,4.6,-,N/A,,Clear,320,2013-03-10 03:55:00
11:15 PM,38.3,32.4,79,30.29,10.0,NW,4.6,-,N/A,,Clear,320,2013-03-10 04:15:00
11:35 PM,39.0,32.2,76,30.30,10.0,Calm,Calm,-,N/A,,Clear,0,2013-03-10 04:35:00
11:55 PM,37.4,32.0,81,30.30,10.0,Calm,Calm,-,N/A,,Clear,0,2013-03-10 04:55:00